• In Österreich
  • Länderverzeichnis
  • Für 7 Tage
  • Wassertemperatur
  • Satellitenkarten
  • Wetterkarte
  • News
  • Widgets
  • user-avatar
    Anmelden

    Stündliche Wetter Terme

    Heute, 21 Juli, Samstag

    Zeit Temperatur Niederschläge Wind Luftdruck Luftfeuchtigkeit
    00:00 +22°C° 0 mm 1 m/S 755 mmHg 92%
    01:00 +21°C° 0 mm 2 m/S 755 mmHg 91%
    02:00 +21°C° 0 mm 2 m/S 755 mmHg 91%
    03:00 +21°C° 0 mm 2 m/S 755 mmHg 90%
    04:00 +21°C° 0 mm 2 m/S 755 mmHg 89%
    05:00 +21°C° 0 mm 2 m/S 755 mmHg 88%
    06:00 +24°C° 0 mm 2 m/S 755 mmHg 79%
    07:00 +26°C° 0 mm 2 m/S 755 mmHg 70%
    08:00 +29°C° 0 mm 2 m/S 755 mmHg 60%
    09:00 +30°C° 0,1 mm 2 m/S 755 mmHg 57%
    10:00 +30°C° 0,1 mm 3 m/S 755 mmHg 55%
    11:00 +31°C° 0,1 mm 3 m/S 756 mmHg 52%
    12:00 +31°C° 0 mm 3 m/S 755 mmHg 54%
    13:00 +32°C° 0 mm 4 m/S 755 mmHg 55%
    14:00 +30°C° 0 mm 4 m/S 755 mmHg 57%
    15:00 +30°C° 0,1 mm 3 m/S 756 mmHg 61%
    16:00 +29°C° 0,1 mm 3 m/S 756 mmHg 64%
    17:00 +28°C° 0,1 mm 3 m/S 756 mmHg 68%
    18:00 +27°C° 0,1 mm 3 m/S 756 mmHg 76%
    19:00 +25°C° 0,1 mm 2 m/S 756 mmHg 84%
    20:00 +23°C° 0,1 mm 2 m/S 757 mmHg 92%
    21:00 +23°C° 0,1 mm 2 m/S 757 mmHg 92%
    22:00 +23°C° 0,1 mm 2 m/S 757 mmHg 91%
    23:00 +22°C° 0,1 mm 3 m/S 757 mmHg 91%

    Morgen, 22 Juli, Sonntag

    Zeit Temperatur Niederschläge Wind Luftdruck Luftfeuchtigkeit
    00:00 +21°C° 0,1 mm 3 m/S 757 mmHg 90%
    01:00 +21°C° 0,1 mm 3 m/S 756 mmHg 89%
    02:00 +21°C° 0,1 mm 3 m/S 756 mmHg 88%
    03:00 +21°C° 0 mm 3 m/S 756 mmHg 87%
    04:00 +21°C° 0 mm 3 m/S 756 mmHg 86%
    05:00 +21°C° 0 mm 3 m/S 756 mmHg 85%
    06:00 +24°C° 0 mm 3 m/S 756 mmHg 77%
    07:00 +27°C° 0 mm 2 m/S 756 mmHg 69%
    08:00 +29°C° 0 mm 2 m/S 756 mmHg 61%
    09:00 +30°C° 0 mm 3 m/S 756 mmHg 58%
    10:00 +30°C° 0 mm 3 m/S 756 mmHg 55%
    11:00 +31°C° 0 mm 3 m/S 756 mmHg 52%
    12:00 +31°C° 0 mm 3 m/S 755 mmHg 52%
    13:00 +32°C° 0 mm 4 m/S 755 mmHg 52%
    14:00 +32°C° 0 mm 4 m/S 755 mmHg 53%
    15:00 +31°C° 0 mm 3 m/S 755 mmHg 57%
    16:00 +30°C° 0 mm 3 m/S 755 mmHg 60%
    17:00 +29°C° 0 mm 2 m/S 755 mmHg 64%
    18:00 +27°C° 0 mm 2 m/S 755 mmHg 73%
    19:00 +25°C° 0 mm 2 m/S 755 mmHg 81%
    20:00 +24°C° 0 mm 1 m/S 755 mmHg 90%
    21:00 +23°C° 0,2 mm 1 m/S 755 mmHg 90%
    22:00 +23°C° 0,2 mm 2 m/S 755 mmHg 90%
    23:00 +23°C° 0,2 mm 2 m/S 755 mmHg 90%

    übermorgen, 23 Juli, Montag

    Zeit Temperatur Niederschläge Wind Luftdruck Luftfeuchtigkeit
    00:00 +23°C° 0 mm 2 m/S 755 mmHg 89%
    01:00 +21°C° 0 mm 2 m/S 755 mmHg 88%
    02:00 +21°C° 0 mm 2 m/S 755 mmHg 87%
    03:00 +21°C° 0 mm 2 m/S 754 mmHg 86%
    04:00 +21°C° 0 mm 2 m/S 754 mmHg 84%
    05:00 +21°C° 0 mm 2 m/S 754 mmHg 83%
    06:00 +25°C° 0 mm 2 m/S 754 mmHg 74%
    07:00 +27°C° 0 mm 1 m/S 754 mmHg 66%
    08:00 +30°C° 0 mm 1 m/S 754 mmHg 57%
    09:00 +31°C° 0 mm 1 m/S 754 mmHg 54%
    10:00 +31°C° 0 mm 2 m/S 753 mmHg 51%
    11:00 +32°C° 0 mm 2 m/S 753 mmHg 47%
    12:00 +33°C° 0 mm 3 m/S 753 mmHg 49%
    13:00 +33°C° 0 mm 3 m/S 753 mmHg 50%
    14:00 +33°C° 0 mm 3 m/S 752 mmHg 52%
    15:00 +31°C° 0 mm 3 m/S 752 mmHg 55%
    16:00 +31°C° 0 mm 3 m/S 752 mmHg 59%
    17:00 +30°C° 0 mm 2 m/S 752 mmHg 62%
    18:00 +28°C° 0 mm 2 m/S 752 mmHg 71%
    19:00 +26°C° 0 mm 2 m/S 753 mmHg 79%
    20:00 +24°C° 0 mm 2 m/S 753 mmHg 88%
    21:00 +24°C° 0 mm 2 m/S 753 mmHg 86%
    22:00 +24°C° 0 mm 2 m/S 753 mmHg 85%
    23:00 +24°C° 0 mm 2 m/S 753 mmHg 84%

    24 Juli, Dienstag

    Zeit Temperatur Niederschläge Wind Luftdruck Luftfeuchtigkeit
    00:00 +23°C° 0 mm 2 m/S 752 mmHg 81%
    01:00 +23°C° 0 mm 2 m/S 752 mmHg 78%
    02:00 +23°C° 0 mm 2 m/S 752 mmHg 75%
    03:00 +22°C° 0 mm 3 m/S 752 mmHg 72%
    04:00 +22°C° 0 mm 3 m/S 752 mmHg 70%
    05:00 +22°C° 0 mm 3 m/S 751 mmHg 67%
    06:00 +26°C° 0 mm 3 m/S 751 mmHg 59%
    07:00 +29°C° 0 mm 3 m/S 751 mmHg 51%
    08:00 +33°C° 0 mm 3 m/S 751 mmHg 44%
    09:00 +35°C° 0 mm 4 m/S 751 mmHg 41%
    10:00 +36°C° 0 mm 4 m/S 751 mmHg 38%
    11:00 +38°C° 0 mm 4 m/S 750 mmHg 35%
    12:00 +39°C° 0 mm 5 m/S 750 mmHg 36%
    13:00 +39°C° 0 mm 5 m/S 750 mmHg 36%
    14:00 +39°C° 0 mm 5 m/S 749 mmHg 37%
    15:00 +37°C° 0 mm 5 m/S 749 mmHg 41%
    16:00 +36°C° 0 mm 5 m/S 749 mmHg 45%
    17:00 +35°C° 0 mm 5 m/S 749 mmHg 49%
    18:00 +33°C° 0 mm 5 m/S 749 mmHg 56%
    19:00 +30°C° 0 mm 4 m/S 749 mmHg 63%
    20:00 +27°C° 0 mm 4 m/S 749 mmHg 69%
    21:00 +27°C° 0 mm 4 m/S 749 mmHg 69%
    22:00 +27°C° 0 mm 4 m/S 750 mmHg 68%
    23:00 +27°C° 0 mm 4 m/S 750 mmHg 67%

    25 Juli, Mittwoch

    Zeit Temperatur Niederschläge Wind Luftdruck Luftfeuchtigkeit
    00:00 +26°C° 0 mm 3 m/S 750 mmHg 73%
    01:00 +26°C° 0 mm 3 m/S 750 mmHg 80%
    02:00 +25°C° 0 mm 2 m/S 750 mmHg 87%
    03:00 +25°C° 0 mm 2 m/S 750 mmHg 85%
    04:00 +25°C° 0 mm 1 m/S 750 mmHg 84%
    05:00 +25°C° 0 mm 1 m/S 750 mmHg 83%
    06:00 +27°C° 0 mm 1 m/S 750 mmHg 76%
    07:00 +29°C° 0 mm 1 m/S 750 mmHg 69%
    08:00 +32°C° 0 mm 1 m/S 750 mmHg 63%
    09:00 +33°C° 0 mm 1 m/S 750 mmHg 59%
    10:00 +35°C° 0 mm 2 m/S 750 mmHg 56%
    11:00 +36°C° 0 mm 3 m/S 750 mmHg 53%
    12:00 +35°C° 0 mm 3 m/S 750 mmHg 54%
    13:00 +35°C° 0 mm 4 m/S 750 mmHg 55%
    14:00 +35°C° 0 mm 4 m/S 749 mmHg 56%
    15:00 +34°C° 0 mm 4 m/S 750 mmHg 61%
    16:00 +33°C° 0 mm 4 m/S 750 mmHg 65%
    17:00 +31°C° 0 mm 3 m/S 750 mmHg 69%
    18:00 +29°C° 0 mm 3 m/S 751 mmHg 77%
    19:00 +28°C° 0 mm 3 m/S 751 mmHg 85%
    20:00 +26°C° 0 mm 2 m/S 751 mmHg 93%
    21:00 +26°C° 0 mm 3 m/S 751 mmHg 92%
    22:00 +25°C° 0 mm 3 m/S 752 mmHg 91%
    23:00 +25°C° 0 mm 3 m/S 752 mmHg 90%

    26 Juli, Donnerstag

    Zeit Temperatur Niederschläge Wind Luftdruck Luftfeuchtigkeit
    00:00 +25°C° 0 mm 3 m/S 752 mmHg 88%
    01:00 +25°C° 0 mm 3 m/S 752 mmHg 86%
    02:00 +24°C° 0 mm 3 m/S 752 mmHg 84%
    03:00 +24°C° 0 mm 3 m/S 752 mmHg 82%
    04:00 +24°C° 0 mm 3 m/S 752 mmHg 80%
    05:00 +24°C° 0 mm 3 m/S 753 mmHg 77%
    06:00 +26°C° 0 mm 3 m/S 753 mmHg 70%
    07:00 +29°C° 0 mm 3 m/S 753 mmHg 62%
    08:00 +31°C° 0 mm 3 m/S 753 mmHg 54%
    09:00 +33°C° 0 mm 3 m/S 753 mmHg 52%
    10:00 +34°C° 0 mm 3 m/S 753 mmHg 49%
    11:00 +35°C° 0 mm 3 m/S 752 mmHg 47%
    12:00 +35°C° 0 mm 4 m/S 752 mmHg 47%
    13:00 +35°C° 0 mm 4 m/S 752 mmHg 48%
    14:00 +35°C° 0 mm 4 m/S 752 mmHg 49%
    15:00 +34°C° 0 mm 3 m/S 752 mmHg 53%
    16:00 +33°C° 0 mm 3 m/S 752 mmHg 57%
    17:00 +31°C° 0 mm 3 m/S 753 mmHg 61%
    18:00 +29°C° 0 mm 2 m/S 753 mmHg 71%
    19:00 +27°C° 0 mm 2 m/S 753 mmHg 80%
    20:00 +25°C° 0 mm 2 m/S 754 mmHg 89%
    21:00 +25°C° 0 mm 2 m/S 754 mmHg 88%
    22:00 +25°C° 0 mm 2 m/S 754 mmHg 87%
    23:00 +24°C° 0 mm 2 m/S 754 mmHg 85%
    Mehr zeigen